When you browse on this site, cookies collect data to enhance your experience and personalize the content and advertising you see.
Visit our Privacy Policy to learn more. By continuing to use the site, you agree to this use of cookies and data.
  • In Switzerland
  • List of Countries
  • For 7 days
  • Water Temperature
  • Satellite Maps
  • Weather Map
  • Weather Widgets
  • user-avatar
    Login

    Hourly Weather Xixi

    Today, 24 July, Wednesday

    Time Temperature Precipitation Wind Pressure Humidity
    00:00 +26°C° 0.3 mm 1 mps 703 mmHg 89%
    01:00 +25°C° 0 mm 1 mps 703 mmHg 88%
    02:00 +25°C° 0 mm 1 mps 703 mmHg 88%
    03:00 +25°C° 0 mm 1 mps 703 mmHg 89%
    04:00 +23°C° 0 mm 0 mps 703 mmHg 90%
    05:00 +24°C° 0 mm 0 mps 703 mmHg 87%
    06:00 +25°C° 0 mm 0 mps 704 mmHg 85%
    07:00 +26°C° 0 mm 0 mps 704 mmHg 83%
    08:00 +28°C° 0 mm 0 mps 705 mmHg 75%
    09:00 +31°C° 0 mm 1 mps 705 mmHg 67%
    10:00 +33°C° 0 mm 1 mps 705 mmHg 59%
    11:00 +33°C° 0.8 mm 1 mps 705 mmHg 60%
    12:00 +33°C° 0.8 mm 1 mps 704 mmHg 61%
    13:00 +34°C° 0.8 mm 1 mps 704 mmHg 63%
    14:00 +33°C° 1.1 mm 1 mps 704 mmHg 66%
    15:00 +32°C° 1.1 mm 1 mps 703 mmHg 70%
    16:00 +32°C° 1.1 mm 1 mps 703 mmHg 73%
    17:00 +30°C° 0.2 mm 1 mps 703 mmHg 78%
    18:00 +29°C° 0.2 mm 1 mps 703 mmHg 83%
    19:00 +27°C° 0.2 mm 1 mps 703 mmHg 87%
    20:00 +27°C° 0 mm 1 mps 703 mmHg 87%
    21:00 +27°C° 0 mm 1 mps 704 mmHg 87%
    22:00 +27°C° 0 mm 1 mps 704 mmHg 87%
    23:00 +26°C° 0 mm 1 mps 704 mmHg 87%

    Tomorrow, 25 July, Thursday

    Time Temperature Precipitation Wind Pressure Humidity
    00:00 +26°C° 0 mm 1 mps 704 mmHg 87%
    01:00 +26°C° 0 mm 1 mps 704 mmHg 87%
    02:00 +26°C° 0 mm 1 mps 704 mmHg 88%
    03:00 +25°C° 0 mm 1 mps 704 mmHg 88%
    04:00 +25°C° 0 mm 1 mps 704 mmHg 88%
    05:00 +26°C° 0 mm 1 mps 704 mmHg 86%
    06:00 +26°C° 0 mm 0 mps 705 mmHg 83%
    07:00 +27°C° 0 mm 0 mps 705 mmHg 81%
    08:00 +30°C° 0.1 mm 1 mps 706 mmHg 74%
    09:00 +32°C° 0.1 mm 1 mps 706 mmHg 67%
    10:00 +34°C° 0.1 mm 1 mps 706 mmHg 60%
    11:00 +33°C° 1.3 mm 1 mps 706 mmHg 63%
    12:00 +33°C° 1.3 mm 1 mps 705 mmHg 65%
    13:00 +34°C° 1.3 mm 2 mps 704 mmHg 68%
    14:00 +33°C° 0.7 mm 1 mps 704 mmHg 68%
    15:00 +33°C° 0.7 mm 1 mps 703 mmHg 68%
    16:00 +33°C° 0.7 mm 1 mps 703 mmHg 68%
    17:00 +31°C° 0.2 mm 1 mps 703 mmHg 74%
    18:00 +30°C° 0.2 mm 1 mps 703 mmHg 80%
    19:00 +28°C° 0.2 mm 1 mps 703 mmHg 86%
    20:00 +28°C° 0 mm 1 mps 703 mmHg 87%
    21:00 +27°C° 0 mm 1 mps 704 mmHg 88%
    22:00 +27°C° 0 mm 1 mps 704 mmHg 88%
    23:00 +27°C° 0 mm 1 mps 703 mmHg 88%

    Day after tomorrow, 26 July, Friday

    Time Temperature Precipitation Wind Pressure Humidity
    00:00 +26°C° 0 mm 1 mps 703 mmHg 88%
    01:00 +26°C° 0 mm 1 mps 703 mmHg 88%
    02:00 +26°C° 0 mm 1 mps 703 mmHg 88%
    03:00 +26°C° 0 mm 1 mps 703 mmHg 89%
    04:00 +26°C° 0 mm 1 mps 703 mmHg 89%
    05:00 +27°C° 0 mm 1 mps 703 mmHg 87%
    06:00 +28°C° 0 mm 1 mps 704 mmHg 84%
    07:00 +29°C° 0 mm 1 mps 704 mmHg 81%
    08:00 +31°C° 0 mm 1 mps 704 mmHg 73%
    09:00 +32°C° 0 mm 2 mps 705 mmHg 65%
    10:00 +35°C° 0 mm 2 mps 705 mmHg 57%
    11:00 +35°C° 0 mm 2 mps 704 mmHg 55%
    12:00 +36°C° 0 mm 2 mps 704 mmHg 52%
    13:00 +37°C° 0 mm 3 mps 703 mmHg 50%
    14:00 +36°C° 0 mm 2 mps 703 mmHg 52%
    15:00 +36°C° 0 mm 2 mps 702 mmHg 55%
    16:00 +35°C° 0 mm 2 mps 702 mmHg 57%
    17:00 +34°C° 0 mm 2 mps 702 mmHg 64%
    18:00 +31°C° 0 mm 1 mps 702 mmHg 72%
    19:00 +29°C° 0 mm 1 mps 702 mmHg 80%
    20:00 +28°C° 0 mm 1 mps 702 mmHg 82%
    21:00 +28°C° 0 mm 1 mps 702 mmHg 83%
    22:00 +28°C° 0 mm 1 mps 702 mmHg 85%
    23:00 +27°C° 0 mm 1 mps 702 mmHg 86%

    27 July, Saturday

    Time Temperature Precipitation Wind Pressure Humidity
    00:00 +27°C° 0 mm 1 mps 702 mmHg 86%
    01:00 +27°C° 0 mm 1 mps 702 mmHg 87%
    02:00 +26°C° 0 mm 1 mps 702 mmHg 88%
    03:00 +26°C° 0 mm 1 mps 702 mmHg 88%
    04:00 +26°C° 0 mm 1 mps 702 mmHg 89%
    05:00 +27°C° 0 mm 1 mps 702 mmHg 85%
    06:00 +28°C° 0 mm 1 mps 703 mmHg 81%
    07:00 +29°C° 0 mm 1 mps 703 mmHg 77%
    08:00 +31°C° 0 mm 1 mps 704 mmHg 69%
    09:00 +32°C° 0 mm 2 mps 704 mmHg 62%
    10:00 +35°C° 0 mm 2 mps 704 mmHg 54%
    11:00 +35°C° 0 mm 2 mps 704 mmHg 53%
    12:00 +36°C° 0 mm 2 mps 703 mmHg 52%
    13:00 +36°C° 0 mm 3 mps 703 mmHg 51%
    14:00 +36°C° 0 mm 2 mps 703 mmHg 53%
    15:00 +36°C° 0 mm 2 mps 702 mmHg 55%
    16:00 +35°C° 0 mm 2 mps 702 mmHg 57%
    17:00 +34°C° 0 mm 2 mps 702 mmHg 65%
    18:00 +31°C° 0 mm 1 mps 702 mmHg 72%
    19:00 +29°C° 0 mm 1 mps 702 mmHg 80%
    20:00 +28°C° 0 mm 1 mps 703 mmHg 81%
    21:00 +28°C° 0 mm 1 mps 703 mmHg 83%
    22:00 +27°C° 0 mm 1 mps 703 mmHg 85%
    23:00 +27°C° 0 mm 1 mps 703 mmHg 86%

    28 July, Sunday

    Time Temperature Precipitation Wind Pressure Humidity
    00:00 +27°C° 0 mm 1 mps 703 mmHg 86%
    01:00 +27°C° 0 mm 1 mps 703 mmHg 87%
    02:00 +26°C° 0 mm 1 mps 703 mmHg 88%
    03:00 +26°C° 0 mm 1 mps 703 mmHg 88%
    04:00 +26°C° 0 mm 1 mps 703 mmHg 88%
    05:00 +27°C° 0 mm 1 mps 703 mmHg 85%
    06:00 +28°C° 0 mm 1 mps 704 mmHg 81%
    07:00 +29°C° 0 mm 1 mps 704 mmHg 77%
    08:00 +31°C° 0 mm 2 mps 705 mmHg 69%
    09:00 +32°C° 0 mm 2 mps 705 mmHg 62%
    10:00 +35°C° 0 mm 3 mps 705 mmHg 54%
    11:00 +35°C° 0 mm 3 mps 705 mmHg 53%
    12:00 +36°C° 0 mm 3 mps 704 mmHg 51%
    13:00 +37°C° 0 mm 3 mps 704 mmHg 49%
    14:00 +36°C° 0 mm 3 mps 704 mmHg 51%
    15:00 +36°C° 0 mm 3 mps 703 mmHg 53%
    16:00 +36°C° 0 mm 2 mps 703 mmHg 55%
    17:00 +34°C° 0 mm 2 mps 703 mmHg 63%
    18:00 +31°C° 0 mm 1 mps 703 mmHg 70%
    19:00 +29°C° 0 mm 1 mps 703 mmHg 78%
    20:00 +28°C° 0 mm 1 mps 703 mmHg 80%
    21:00 +28°C° 0 mm 1 mps 703 mmHg 81%
    22:00 +27°C° 0 mm 1 mps 704 mmHg 82%
    23:00 +27°C° 0 mm 1 mps 703 mmHg 83%

    29 July, Monday

    Time Temperature Precipitation Wind Pressure Humidity
    00:00 +27°C° 0 mm 1 mps 703 mmHg 84%
    01:00 +26°C° 0 mm 1 mps 703 mmHg 85%
    02:00 +26°C° 0 mm 1 mps 703 mmHg 86%
    03:00 +26°C° 0 mm 1 mps 703 mmHg 88%
    04:00 +25°C° 0 mm 1 mps 704 mmHg 89%
    05:00 +27°C° 0 mm 1 mps 704 mmHg 86%
    06:00 +28°C° 0 mm 1 mps 704 mmHg 82%
    07:00 +29°C° 0 mm 1 mps 705 mmHg 78%
    08:00 +31°C° 0 mm 1 mps 705 mmHg 71%
    09:00 +32°C° 0 mm 2 mps 705 mmHg 64%
    10:00 +35°C° 0 mm 2 mps 706 mmHg 56%
    11:00 +35°C° 0 mm 2 mps 705 mmHg 54%
    12:00 +36°C° 0 mm 3 mps 705 mmHg 52%
    13:00 +37°C° 0 mm 3 mps 705 mmHg 50%
    14:00 +36°C° 0 mm 3 mps 704 mmHg 53%
    15:00 +36°C° 0 mm 2 mps 704 mmHg 55%
    16:00 +35°C° 0 mm 2 mps 703 mmHg 57%
    17:00 +34°C° 0 mm 2 mps 703 mmHg 64%
    18:00 +31°C° 0 mm 1 mps 703 mmHg 71%
    19:00 +29°C° 0 mm 1 mps 703 mmHg 78%
    20:00 +28°C° 0 mm 1 mps 703 mmHg 80%
    21:00 +28°C° 0 mm 1 mps 704 mmHg 81%
    22:00 +27°C° 0 mm 1 mps 704 mmHg 83%
    23:00 +27°C° 0 mm 1 mps 704 mmHg 83%
    Show more